COSMOS 1275 DEB, 42182

Orbit data source: Space-Track

COSMOS 1275 DEB, 42182 is space debris in LEO originally from a launch on Thu, 04 Jun 1981 UTC launched from the Plesetsk Missile And Space Complex (PKMTR). Debris objects in space refer to the collection of defunct objects orbiting the Earth. Examples of debris include non-operational satellites, rocket bodies, and fragments generated from explosions, collisions, or faulty payload assembly.

Loading next visibility...
Identifier
42182, 1981-053SW
Orbit
LEO
Country
Flag of CISCIS
Related business
Manufacturer
Unknown
Mission
Spacecraft
Bus & Motor
Unknown
Mass
Unknown
Launch date (UTC)
1981-06-04 (44 years ago)
Launch vehicle
Unknown
Launch site
Plesetsk Missile And Space Complex (PKMTR)
Object type
Payload
Rocket body
Debris
Shape & HBR
Unknown shape, 0.1 m
Radar Cross Section
Small (<0.1 m²)

Expand to show TLE details & history
Last TLE update: 3 days ago

TLE from 3 days ago
0 COSMOS 1275 DEB
1 42182U 81053SW  25308.21452476  .00000894  00000-0  10642-2 0  9999
2 42182  82.9510 120.9749 0128795 138.7227  40.2084 13.62813609580592
Epoch: 2025-11-04T05:08Z
TLE epoch observation values (Epoch: 2025-11-04T05:08:54.939Z)
Latitude
-0.01111°
Longitude
-179.9574°
Altitude
956.051 km
Speed
7.41 km/s
True Right ascension
20h 03m 54s
True Declination
0° 00' 40"
Sunlit
Object was in daylight at epoch
Visualization orbit readout
Latitude
Unknown
Longitude
Unknown
Altitude
Unknown
Speed
Unknown
Apparent Right ascension
Unknown
Apparent Declination
Unknown
Sunlit
N/A
Visualization observer readout
Local Sidereal Time
09:22:14
Azimuth
Unknown
Elevation
Unknown
Doppler factor
Unknown
Orbital elements
Apogee altitude
1,117.967 km
Perigee altitude
927.331 km
Semi-major axis
7,400.786 km
Eccentricity
0.01288
Inclination
82.951°
RAAN
120.9749°
Arg. of periapsis
138.7227°
True anomaly
41.17299°
Mean anomaly
40.2084°
Eccentric anomaly
40.68951°
Mean motion
3.409 °/min
Orbital period
105.6 mins
BSTAR
0.0010642
Loading maneuver chart data...
Computing Atmospheric mass density...

Documentation

Showing up to 5 results
|